Printer-friendly version

IAU Minor Planet Center

Minor Planet Center

MPEC 2006-C42 : 2006 CF10

The following Minor Planet Electronic Circular may be linked-to from your own Web pages, but must not otherwise be redistributed electronically.


Read MPEC 2006-C41 Read MPEC 2006-C43


M.P.E.C. 2006-C42                                Issued 2006 Feb. 8, 04:32 UT

     The Minor Planet Electronic Circulars contain information on unusual
         minor planets and routine data on comets.  They are published
   on behalf of Commission 20 of the International Astronomical Union by the
          Minor Planet Center, Smithsonian Astrophysical Observatory,
                          Cambridge, MA 02138, U.S.A.

                  Supported in part by the Brinson Foundation
                  Supported in part by the TABASGO Foundation
             Prepared using the Tamkin Foundation Computer Network

                              MPC@CFA.HARVARD.EDU
          URL http://cfa-www.harvard.edu/iau/mpc.html  ISSN 1523-6714

                                   2006 CF10

Observations:
     K06C10F* C2006 02 05.30154 08 42 24.08 +17 44 07.0          20.2 V EC042G96
     K06C10F  C2006 02 05.30799 08 42 26.96 +17 45 57.7          20.1 V EC042G96
     K06C10F  C2006 02 05.31438 08 42 29.80 +17 47 46.7          19.9 V EC042G96
     K06C10F  C2006 02 05.32100 08 42 32.76 +17 49 40.4          20.2 V EC042G96
     K06C10F  C2006 02 06.20010 08 49 40.65 +21 47 26.5          20.9 V EC042G96
     K06C10F  C2006 02 06.20047 08 49 40.83 +21 47 32.3          20.8 V EC042G96
     K06C10F  C2006 02 06.20083 08 49 40.98 +21 47 38.1          20.4 V EC042G96
     K06C10F  C2006 02 06.20119 08 49 41.12 +21 47 43.6          20.4 V EC042G96
     K06C10F tC2006 02 07.36625 08 58 19.18 +26 23 08.7                 EC042291
     K06C10F tC2006 02 07.37046 08 58 20.96 +26 24 07.5                 EC042291
     K06C10F  C2006 02 08.13707 09 03 45.00 +29 01 52.3                 EC042J95
     K06C10F  C2006 02 08.14434 09 03 47.85 +29 03 17.8                 EC042J95
     K06C10F  C2006 02 08.15178 09 03 50.81 +29 04 43.1          19.9 R EC042J95

Observer details:
291 LPL/Spacewatch II.  Observer A. S. Descour.  1.8-m f/2.7 reflector + CCD.
G96 Mt. Lemmon Survey.  Observer R. A. Kowalski.  Measurers E. C. Beshore,
    E. J. Christensen, G. J. Garradd, A. D. Grauer, R. E. Hill, R. A. Kowalski,
    S. M. Larson, R. H. McNaught.  1.5-m reflector + CCD.
J95 Great Shefford.  Observer P. Birtwhistle.  0.40-m f/6.0 Schmidt-Cassegrain
    + CCD.

Orbital elements:
2006 CF10                                                Earth MOID = 0.0572 AU
Epoch 2006 Mar. 6.0 TT = JDT 2453800.5                  MPC
M  36.93686              (2000.0)            P               Q
n   0.52373309     Peri.  311.72958     +0.01420532     -0.97387553
a   1.5242728      Node   135.83553     +0.98650646     -0.02332289
e   0.3709359      Incl.   18.98328     +0.16310492     +0.22588161
P   1.88           H   25.4           G   0.15           U   7
Residuals in seconds of arc
060205 G96  0.1+  0.3+    060206 G96  0.2+  0.1-    060208 J95  0.0   0.6-
060205 G96  0.1+  0.2+    060206 G96  0.1+  0.2+    060208 J95  0.2-  0.7+
060205 G96  0.1-  0.4-    060206 G96  0.1-  0.1+    060208 J95  0.2+  0.1-
060205 G96  0.1-  0.1-    060207 291 (3.1-  6.5-)
060206 G96  0.1-  0.2-    060207 291 (1.4-  2.3-)

Ephemeris:
2006 CF10                a,e,i = 1.52, 0.37, 19                  q = 0.9589
Date    TT    R. A. (2000) Decl.     Delta      r     Elong.  Phase     V
2006 02 04    08 31.25   +11 01.9    0.0638   1.049   169.3    10.1    20.2
2006 02 05    08 39.89   +16 16.5    0.0673   1.053   171.9     7.6    20.2
2006 02 06    08 48.03   +20 56.0    0.0715   1.057   171.3     8.1    20.4
2006 02 07    08 55.68   +25 01.4    0.0761   1.061   168.6    10.5    20.6
2006 02 08    09 02.86   +28 35.5    0.0813   1.065   165.5    13.4    20.9
2006 02 09    09 09.59   +31 41.5    0.0868   1.070   162.5    16.1    21.1
2006 02 10    09 15.90   +34 22.9    0.0926   1.074   159.7    18.6    21.3
2006 02 11    09 21.81   +36 43.0    0.0986   1.079   157.2    20.8    21.6
2006 02 12    09 27.33   +38 44.8    0.105    1.083   154.9    22.8    21.8
2006 02 13    09 32.50   +40 30.7    0.111    1.088   152.8    24.5    22.0
2006 02 14    09 37.34   +42 03.1    0.118    1.092   151.0    26.0    22.1

Gareth V. Williams           (C) Copyright 2006 MPC           M.P.E.C. 2006-C42

Read MPEC 2006-C41 Read MPEC 2006-C43


Our Web policy. Index to the CBAT/MPC/ICQ pages.


Valid HTML 4.01!